owner,sensor,date,latitude,longitude,vertical_datum,mass_concentration_of_oxygen_in_sea_water,qcFlag 
NERRS,ioos:station:NOAA.NERRS:marscwq:1,2017-08-01T00:00:00Z,27.8383,-97.0503,5.94,6.5,1111122 
NERRS,ioos:station:NOAA.NERRS:marscwq:1,2017-08-01T01:00:00Z,27.8383,-97.0503,5.98,6.5,1111122 
NERRS,ioos:station:NOAA.NERRS:marscwq:1,2017-08-01T02:00:00Z,27.8383,-97.0503,6.07,6.7,1111122 
NERRS,ioos:station:NOAA.NERRS:marscwq:1,2017-08-01T03:00:00Z,27.8383,-97.0503,6.14,6.6,1111122 
NERRS,ioos:station:NOAA.NERRS:marscwq:1,2017-08-01T04:00:00Z,27.8383,-97.0503,6.17,6.5,1111122 
NERRS,ioos:station:NOAA.NERRS:marscwq:1,2017-08-01T06:00:00Z,27.8383,-97.0503,6.17,6.5,1111122 
NERRS,ioos:station:NOAA.NERRS:marscwq:1,2017-08-01T07:00:00Z,27.8383,-97.0503,6.17,6.5,1111122 
NERRS,ioos:station:NOAA.NERRS:marscwq:1,2017-08-01T08:00:00Z,27.8383,-97.0503,6.2,6.5,1111122 
NERRS,ioos:station:NOAA.NERRS:marscwq:1,2017-08-01T09:00:00Z,27.8383,-97.0503,6.19,6.6,1111122 
NERRS,ioos:station:NOAA.NERRS:marscwq:1,2017-08-01T10:00:00Z,27.8383,-97.0503,6.22,6.5,1111122 
NERRS,ioos:station:NOAA.NERRS:marscwq:1,2017-08-01T11:00:00Z,27.8383,-97.0503,6.21,6.4,1111122 
NERRS,ioos:station:NOAA.NERRS:marscwq:1,2017-08-01T12:00:00Z,27.8383,-97.0503,6.2,6.4,1111122 
NERRS,ioos:station:NOAA.NERRS:marscwq:1,2017-08-01T13:00:00Z,27.8383,-97.0503,6.21,6.3,1111122 
NERRS,ioos:station:NOAA.NERRS:marscwq:1,2017-08-01T14:00:00Z,27.8383,-97.0503,6.18,6.3,1111122 
NERRS,ioos:station:NOAA.NERRS:marscwq:1,2017-08-01T15:00:00Z,27.8383,-97.0503,6.25,6.3,1111122 
NERRS,ioos:station:NOAA.NERRS:marscwq:1,2017-08-01T16:00:00Z,27.8383,-97.0503,6.21,6.3,1111122 
NERRS,ioos:station:NOAA.NERRS:marscwq:1,2017-08-01T17:00:00Z,27.8383,-97.0503,6.19,6.3,1111122 
NERRS,ioos:station:NOAA.NERRS:marscwq:1,2017-08-01T19:00:00Z,27.8383,-97.0503,6.13,6.2,1111122 
NERRS,ioos:station:NOAA.NERRS:marscwq:1,2017-08-01T20:00:00Z,27.8383,-97.0503,6.07,6.3,1111122 
NERRS,ioos:station:NOAA.NERRS:marscwq:1,2017-08-01T22:00:00Z,27.8383,-97.0503,5.96,6.4,1111122 
NERRS,ioos:station:NOAA.NERRS:marscwq:1,2017-08-02T01:00:00Z,27.8383,-97.0503,6.0,6.6,1111122 
NERRS,ioos:station:NOAA.NERRS:marscwq:1,2017-08-02T02:00:00Z,27.8383,-97.0503,6.08,6.6,1111122 
NERRS,ioos:station:NOAA.NERRS:marscwq:1,2017-08-02T03:00:00Z,27.8383,-97.0503,6.13,6.6,1111122 
NERRS,ioos:station:NOAA.NERRS:marscwq:1,2017-08-02T04:00:00Z,27.8383,-97.0503,6.2,6.6,1111122 
NERRS,ioos:station:NOAA.NERRS:marscwq:1,2017-08-02T05:00:00Z,27.8383,-97.0503,6.25,6.3,1111122 
NERRS,ioos:station:NOAA.NERRS:marscwq:1,2017-08-02T06:00:00Z,27.8383,-97.0503,6.26,6.1,1111122 
NERRS,ioos:station:NOAA.NERRS:marscwq:1,2017-08-02T08:00:00Z,27.8383,-97.0503,6.25,6.2,1111122 
NERRS,ioos:station:NOAA.NERRS:marscwq:1,2017-08-02T09:00:00Z,27.8383,-97.0503,6.28,6.1,1111122 
NERRS,ioos:station:NOAA.NERRS:marscwq:1,2017-08-02T10:00:00Z,27.8383,-97.0503,6.31,6.0,1111122 
NERRS,ioos:station:NOAA.NERRS:marscwq:1,2017-08-02T11:00:00Z,27.8383,-97.0503,6.28,6.0,1111122 
NERRS,ioos:station:NOAA.NERRS:marscwq:1,2017-08-02T12:00:00Z,27.8383,-97.0503,6.29,6.0,1111122 
NERRS,ioos:station:NOAA.NERRS:marscwq:1,2017-08-02T13:00:00Z,27.8383,-97.0503,6.29,5.9,1111122 
NERRS,ioos:station:NOAA.NERRS:marscwq:1,2017-08-02T15:00:00Z,27.8383,-97.0503,6.32,5.9,1111122 
NERRS,ioos:station:NOAA.NERRS:marscwq:1,2017-08-02T16:00:00Z,27.8383,-97.0503,6.29,6.0,1111122 
NERRS,ioos:station:NOAA.NERRS:marscwq:1,2017-08-02T17:00:00Z,27.8383,-97.0503,6.25,6.0,1111122 
NERRS,ioos:station:NOAA.NERRS:marscwq:1,2017-08-02T18:00:00Z,27.8383,-97.0503,6.23,6.0,1111122 
NERRS,ioos:station:NOAA.NERRS:marscwq:1,2017-08-02T19:00:00Z,27.8383,-97.0503,6.16,6.1,1111122 
NERRS,ioos:station:NOAA.NERRS:marscwq:1,2017-08-02T20:00:00Z,27.8383,-97.0503,6.13,6.0,1111122 
NERRS,ioos:station:NOAA.NERRS:marscwq:1,2017-08-03T00:00:00Z,27.8383,-97.0503,5.97,6.3,1111122 
NERRS,ioos:station:NOAA.NERRS:marscwq:1,2017-08-03T01:00:00Z,27.8383,-97.0503,6.01,6.4,1111122 
NERRS,ioos:station:NOAA.NERRS:marscwq:1,2017-08-03T03:00:00Z,27.8383,-97.0503,6.11,6.5,1111122 
NERRS,ioos:station:NOAA.NERRS:marscwq:1,2017-08-03T05:00:00Z,27.8383,-97.0503,6.26,6.4,1111122 
NERRS,ioos:station:NOAA.NERRS:marscwq:1,2017-08-03T07:00:00Z,27.8383,-97.0503,6.3,6.0,1111122 
NERRS,ioos:station:NOAA.NERRS:marscwq:1,2017-08-03T09:00:00Z,27.8383,-97.0503,6.31,6.1,1111122 
NERRS,ioos:station:NOAA.NERRS:marscwq:1,2017-08-03T10:00:00Z,27.8383,-97.0503,6.34,6.1,1111122 
NERRS,ioos:station:NOAA.NERRS:marscwq:1,2017-08-03T11:00:00Z,27.8383,-97.0503,6.32,6.1,1111122 
NERRS,ioos:station:NOAA.NERRS:marscwq:1,2017-08-03T12:00:00Z,27.8383,-97.0503,6.33,6.0,1111122 
NERRS,ioos:station:NOAA.NERRS:marscwq:1,2017-08-03T13:00:00Z,27.8383,-97.0503,6.32,6.0,1111122 
NERRS,ioos:station:NOAA.NERRS:marscwq:1,2017-08-03T14:00:00Z,27.8383,-97.0503,6.32,5.9,1111122 
NERRS,ioos:station:NOAA.NERRS:marscwq:1,2017-08-03T15:00:00Z,27.8383,-97.0503,6.32,5.8,1111122 
NERRS,ioos:station:NOAA.NERRS:marscwq:1,2017-08-03T17:00:00Z,27.8383,-97.0503,6.3,5.8,1111122 
NERRS,ioos:station:NOAA.NERRS:marscwq:1,2017-08-03T18:00:00Z,27.8383,-97.0503,6.22,5.9,1111122 
NERRS,ioos:station:NOAA.NERRS:marscwq:1,2017-08-04T00:00:00Z,27.8383,-97.0503,5.82,6.1,1111122 
NERRS,ioos:station:NOAA.NERRS:marscwq:1,2017-08-04T03:00:00Z,27.8383,-97.0503,6.03,6.0,1111122 
NERRS,ioos:station:NOAA.NERRS:marscwq:1,2017-08-04T06:00:00Z,27.8383,-97.0503,6.21,5.7,1111122 
NERRS,ioos:station:NOAA.NERRS:marscwq:1,2017-08-04T11:00:00Z,27.8383,-97.0503,6.23,5.8,1111122 
NERRS,ioos:station:NOAA.NERRS:marscwq:1,2017-08-04T16:00:00Z,27.8383,-97.0503,6.23,5.9,1111122 
NERRS,ioos:station:NOAA.NERRS:marscwq:1,2017-08-04T19:00:00Z,27.8383,-97.0503,6.16,5.8,1111122 
NERRS,ioos:station:NOAA.NERRS:marscwq:1,2017-08-04T21:00:00Z,27.8383,-97.0503,6.0,5.8,1111122 
NERRS,ioos:station:NOAA.NERRS:marscwq:1,2017-08-04T23:00:00Z,27.8383,-97.0503,5.88,6.0,1111122 
NERRS,ioos:station:NOAA.NERRS:marscwq:1,2017-08-05T05:00:00Z,27.8383,-97.0503,6.11,6.1,1111122 
NERRS,ioos:station:NOAA.NERRS:marscwq:1,2017-08-05T06:00:00Z,27.8383,-97.0503,6.16,6.0,1111122 
NERRS,ioos:station:NOAA.NERRS:marscwq:1,2017-08-05T07:00:00Z,27.8383,-97.0503,6.22,5.9,1111122 
NERRS,ioos:station:NOAA.NERRS:marscwq:1,2017-08-05T09:00:00Z,27.8383,-97.0503,6.23,5.9,1111122 
NERRS,ioos:station:NOAA.NERRS:marscwq:1,2017-08-05T11:00:00Z,27.8383,-97.0503,6.24,5.9,1111122 
NERRS,ioos:station:NOAA.NERRS:marscwq:1,2017-08-05T12:00:00Z,27.8383,-97.0503,6.25,5.9,1111122 
NERRS,ioos:station:NOAA.NERRS:marscwq:1,2017-08-05T13:00:00Z,27.8383,-97.0503,6.23,5.9,1111122 
NERRS,ioos:station:NOAA.NERRS:marscwq:1,2017-08-05T14:00:00Z,27.8383,-97.0503,6.24,5.8,1111122 
NERRS,ioos:station:NOAA.NERRS:marscwq:1,2017-08-05T16:00:00Z,27.8383,-97.0503,6.24,5.9,1111122 
NERRS,ioos:station:NOAA.NERRS:marscwq:1,2017-08-05T17:00:00Z,27.8383,-97.0503,6.22,5.9,1111122 
NERRS,ioos:station:NOAA.NERRS:marscwq:1,2017-08-05T18:00:00Z,27.8383,-97.0503,6.19,5.8,1111122 
NERRS,ioos:station:NOAA.NERRS:marscwq:1,2017-08-05T19:00:00Z,27.8383,-97.0503,6.15,6.0,1111122 
NERRS,ioos:station:NOAA.NERRS:marscwq:1,2017-08-05T20:00:00Z,27.8383,-97.0503,6.12,5.9,1111122 
NERRS,ioos:station:NOAA.NERRS:marscwq:1,2017-08-05T21:00:00Z,27.8383,-97.0503,6.08,5.8,1111122 
NERRS,ioos:station:NOAA.NERRS:marscwq:1,2017-08-05T22:00:00Z,27.8383,-97.0503,5.95,5.9,1111122 
NERRS,ioos:station:NOAA.NERRS:marscwq:1,2017-08-06T03:00:00Z,27.8383,-97.0503,5.85,6.0,1111122 
NERRS,ioos:station:NOAA.NERRS:marscwq:1,2017-08-06T04:00:00Z,27.8383,-97.0503,5.87,5.8,1111122 
NERRS,ioos:station:NOAA.NERRS:marscwq:1,2017-08-06T05:00:00Z,27.8383,-97.0503,5.96,5.6,1111122 
NERRS,ioos:station:NOAA.NERRS:marscwq:1,2017-08-06T06:00:00Z,27.8383,-97.0503,6.09,5.8,1111122 
NERRS,ioos:station:NOAA.NERRS:marscwq:1,2017-08-06T07:00:00Z,27.8383,-97.0503,6.13,5.7,1111122 
NERRS,ioos:station:NOAA.NERRS:marscwq:1,2017-08-06T08:00:00Z,27.8383,-97.0503,6.16,5.7,1111122 
NERRS,ioos:station:NOAA.NERRS:marscwq:1,2017-08-06T09:00:00Z,27.8383,-97.0503,6.16,5.8,1111122 
NERRS,ioos:station:NOAA.NERRS:marscwq:1,2017-08-06T10:00:00Z,27.8383,-97.0503,6.2,5.8,1111122 
NERRS,ioos:station:NOAA.NERRS:marscwq:1,2017-08-06T11:00:00Z,27.8383,-97.0503,6.2,5.9,1111122 
NERRS,ioos:station:NOAA.NERRS:marscwq:1,2017-08-06T12:00:00Z,27.8383,-97.0503,6.18,5.8,1111122 
NERRS,ioos:station:NOAA.NERRS:marscwq:1,2017-08-06T13:00:00Z,27.8383,-97.0503,6.18,5.8,1111122 
NERRS,ioos:station:NOAA.NERRS:marscwq:1,2017-08-06T14:00:00Z,27.8383,-97.0503,6.2,5.8,1111122 
NERRS,ioos:station:NOAA.NERRS:marscwq:1,2017-08-06T15:00:00Z,27.8383,-97.0503,6.18,5.7,1111122 
NERRS,ioos:station:NOAA.NERRS:marscwq:1,2017-08-06T16:00:00Z,27.8383,-97.0503,6.2,5.8,1111122 
NERRS,ioos:station:NOAA.NERRS:marscwq:1,2017-08-06T17:00:00Z,27.8383,-97.0503,6.2,5.8,1111122 
NERRS,ioos:station:NOAA.NERRS:marscwq:1,2017-08-06T18:00:00Z,27.8383,-97.0503,6.14,5.6,1111122 
NERRS,ioos:station:NOAA.NERRS:marscwq:1,2017-08-06T19:00:00Z,27.8383,-97.0503,6.15,5.8,1111122 
NERRS,ioos:station:NOAA.NERRS:marscwq:1,2017-08-06T20:00:00Z,27.8383,-97.0503,6.14,5.9,1111122 
NERRS,ioos:station:NOAA.NERRS:marscwq:1,2017-08-06T21:00:00Z,27.8383,-97.0503,6.09,5.9,1111122 
NERRS,ioos:station:NOAA.NERRS:marscwq:1,2017-08-06T22:00:00Z,27.8383,-97.0503,6.01,5.8,1111122 
NERRS,ioos:station:NOAA.NERRS:marscwq:1,2017-08-06T23:00:00Z,27.8383,-97.0503,5.9,5.8,1111122 
NERRS,ioos:station:NOAA.NERRS:marscwq:1,2017-08-07T00:00:00Z,27.8383,-97.0503,5.87,5.9,1111122 
NERRS,ioos:station:NOAA.NERRS:marscwq:1,2017-08-07T01:00:00Z,27.8383,-97.0503,5.85,5.8,1111122 
NERRS,ioos:station:NOAA.NERRS:marscwq:1,2017-08-07T02:00:00Z,27.8383,-97.0503,5.83,5.9,1111122 
NERRS,ioos:station:NOAA.NERRS:marscwq:1,2017-08-07T03:00:00Z,27.8383,-97.0503,5.82,5.9,1111122 
NERRS,ioos:station:NOAA.NERRS:marscwq:1,2017-08-07T04:00:00Z,27.8383,-97.0503,5.88,5.8,1111122 
NERRS,ioos:station:NOAA.NERRS:marscwq:1,2017-08-07T05:00:00Z,27.8383,-97.0503,5.95,5.8,1111122 
NERRS,ioos:station:NOAA.NERRS:marscwq:1,2017-08-07T06:00:00Z,27.8383,-97.0503,6.05,5.8,1111122 
NERRS,ioos:station:NOAA.NERRS:marscwq:1,2017-08-07T07:00:00Z,27.8383,-97.0503,6.09,5.6,1111122 
NERRS,ioos:station:NOAA.NERRS:marscwq:1,2017-08-07T08:00:00Z,27.8383,-97.0503,6.13,5.6,1111122 
NERRS,ioos:station:NOAA.NERRS:marscwq:1,2017-08-07T09:00:00Z,27.8383,-97.0503,6.16,5.7,1111122 
NERRS,ioos:station:NOAA.NERRS:marscwq:1,2017-08-07T10:00:00Z,27.8383,-97.0503,6.15,5.8,1111122 
NERRS,ioos:station:NOAA.NERRS:marscwq:1,2017-08-07T11:00:00Z,27.8383,-97.0503,6.2,5.9,1111122 
NERRS,ioos:station:NOAA.NERRS:marscwq:1,2017-08-07T12:00:00Z,27.8383,-97.0503,6.19,5.9,1111122 
NERRS,ioos:station:NOAA.NERRS:marscwq:1,2017-08-07T13:00:00Z,27.8383,-97.0503,6.18,5.8,1111122 
NERRS,ioos:station:NOAA.NERRS:marscwq:1,2017-08-07T14:00:00Z,27.8383,-97.0503,6.2,5.8,1111122 
NERRS,ioos:station:NOAA.NERRS:marscwq:1,2017-08-07T15:00:00Z,27.8383,-97.0503,6.18,5.8,1111122 
NERRS,ioos:station:NOAA.NERRS:marscwq:1,2017-08-07T16:00:00Z,27.8383,-97.0503,6.17,5.8,1111122 
NERRS,ioos:station:NOAA.NERRS:marscwq:1,2017-08-07T17:00:00Z,27.8383,-97.0503,6.21,5.8,1111122 
NERRS,ioos:station:NOAA.NERRS:marscwq:1,2017-08-07T18:00:00Z,27.8383,-97.0503,6.19,5.7,1111122 
NERRS,ioos:station:NOAA.NERRS:marscwq:1,2017-08-07T19:00:00Z,27.8383,-97.0503,6.18,5.6,1111122 
NERRS,ioos:station:NOAA.NERRS:marscwq:1,2017-08-07T20:00:00Z,27.8383,-97.0503,6.17,6.2,1111122 
NERRS,ioos:station:NOAA.NERRS:marscwq:1,2017-08-07T21:00:00Z,27.8383,-97.0503,6.14,5.9,1111122 
NERRS,ioos:station:NOAA.NERRS:marscwq:1,2017-08-07T22:00:00Z,27.8383,-97.0503,6.03,5.9,1111122 
NERRS,ioos:station:NOAA.NERRS:marscwq:1,2017-08-07T23:00:00Z,27.8383,-97.0503,5.99,6.0,1111122 
NERRS,ioos:station:NOAA.NERRS:marscwq:1,2017-08-08T00:00:00Z,27.8383,-97.0503,5.9,5.9,1111122 
NERRS,ioos:station:NOAA.NERRS:marscwq:1,2017-08-08T01:00:00Z,27.8383,-97.0503,5.85,5.9,1111122 
NERRS,ioos:station:NOAA.NERRS:marscwq:1,2017-08-08T02:00:00Z,27.8383,-97.0503,5.83,5.9,1111122 
NERRS,ioos:station:NOAA.NERRS:marscwq:1,2017-08-08T03:00:00Z,27.8383,-97.0503,5.85,6.1,1111122 
NERRS,ioos:station:NOAA.NERRS:marscwq:1,2017-08-08T04:00:00Z,27.8383,-97.0503,5.87,6.1,1111122 
NERRS,ioos:station:NOAA.NERRS:marscwq:1,2017-08-08T05:00:00Z,27.8383,-97.0503,5.9,6.0,1111122 
NERRS,ioos:station:NOAA.NERRS:marscwq:1,2017-08-08T06:00:00Z,27.8383,-97.0503,5.96,5.8,1111122 
NERRS,ioos:station:NOAA.NERRS:marscwq:1,2017-08-08T07:00:00Z,27.8383,-97.0503,6.03,5.8,1111122 
NERRS,ioos:station:NOAA.NERRS:marscwq:1,2017-08-08T08:00:00Z,27.8383,-97.0503,6.15,5.7,1111122 
NERRS,ioos:station:NOAA.NERRS:marscwq:1,2017-08-08T09:00:00Z,27.8383,-97.0503,6.19,5.6,1111122 
NERRS,ioos:station:NOAA.NERRS:marscwq:1,2017-08-08T10:00:00Z,27.8383,-97.0503,6.24,5.7,1111122 
NERRS,ioos:station:NOAA.NERRS:marscwq:1,2017-08-08T11:00:00Z,27.8383,-97.0503,6.2,5.6,1111122 
NERRS,ioos:station:NOAA.NERRS:marscwq:1,2017-08-08T12:00:00Z,27.8383,-97.0503,6.19,5.7,1111122 
NERRS,ioos:station:NOAA.NERRS:marscwq:1,2017-08-08T13:00:00Z,27.8383,-97.0503,6.22,5.7,1111122 
NERRS,ioos:station:NOAA.NERRS:marscwq:1,2017-08-08T14:00:00Z,27.8383,-97.0503,6.22,5.8,1111122 
NERRS,ioos:station:NOAA.NERRS:marscwq:1,2017-08-08T15:00:00Z,27.8383,-97.0503,6.23,5.8,1111122 
NERRS,ioos:station:NOAA.NERRS:marscwq:1,2017-08-08T16:00:00Z,27.8383,-97.0503,6.21,5.8,1111122 
NERRS,ioos:station:NOAA.NERRS:marscwq:1,2017-08-08T17:00:00Z,27.8383,-97.0503,6.2,5.7,1111122 
NERRS,ioos:station:NOAA.NERRS:marscwq:1,2017-08-08T18:00:00Z,27.8383,-97.0503,6.19,5.6,1111122 
NERRS,ioos:station:NOAA.NERRS:marscwq:1,2017-08-08T19:00:00Z,27.8383,-97.0503,6.2,5.6,1111122 
NERRS,ioos:station:NOAA.NERRS:marscwq:1,2017-08-08T20:00:00Z,27.8383,-97.0503,6.22,5.6,1111122 
NERRS,ioos:station:NOAA.NERRS:marscwq:1,2017-08-08T21:00:00Z,27.8383,-97.0503,6.21,5.5,1111122 
NERRS,ioos:station:NOAA.NERRS:marscwq:1,2017-08-08T22:00:00Z,27.8383,-97.0503,6.14,5.9,1111122 
NERRS,ioos:station:NOAA.NERRS:marscwq:1,2017-08-08T23:00:00Z,27.8383,-97.0503,6.08,5.7,1111122 
NERRS,ioos:station:NOAA.NERRS:marscwq:1,2017-08-09T00:00:00Z,27.8383,-97.0503,5.99,5.7,1111122 
NERRS,ioos:station:NOAA.NERRS:marscwq:1,2017-08-09T01:00:00Z,27.8383,-97.0503,5.97,5.8,1111122 
NERRS,ioos:station:NOAA.NERRS:marscwq:1,2017-08-09T02:00:00Z,27.8383,-97.0503,5.88,5.7,1111122 
NERRS,ioos:station:NOAA.NERRS:marscwq:1,2017-08-09T03:00:00Z,27.8383,-97.0503,5.91,5.8,1111122 
NERRS,ioos:station:NOAA.NERRS:marscwq:1,2017-08-09T04:00:00Z,27.8383,-97.0503,5.88,5.9,1111122 
NERRS,ioos:station:NOAA.NERRS:marscwq:1,2017-08-09T05:00:00Z,27.8383,-97.0503,5.9,5.9,1111122 
NERRS,ioos:station:NOAA.NERRS:marscwq:1,2017-08-09T06:00:00Z,27.8383,-97.0503,5.98,5.7,1111122 
NERRS,ioos:station:NOAA.NERRS:marscwq:1,2017-08-09T07:00:00Z,27.8383,-97.0503,6.08,5.9,1111122 
NERRS,ioos:station:NOAA.NERRS:marscwq:1,2017-08-09T08:00:00Z,27.8383,-97.0503,6.15,5.9,1111122 
NERRS,ioos:station:NOAA.NERRS:marscwq:1,2017-08-09T09:00:00Z,27.8383,-97.0503,6.18,5.7,1111122 
NERRS,ioos:station:NOAA.NERRS:marscwq:1,2017-08-09T10:00:00Z,27.8383,-97.0503,6.23,5.7,1111122 
NERRS,ioos:station:NOAA.NERRS:marscwq:1,2017-08-09T11:00:00Z,27.8383,-97.0503,6.25,5.7,1111122 
NERRS,ioos:station:NOAA.NERRS:marscwq:1,2017-08-09T12:00:00Z,27.8383,-97.0503,6.26,5.6,1111122 
NERRS,ioos:station:NOAA.NERRS:marscwq:1,2017-08-09T13:00:00Z,27.8383,-97.0503,6.23,5.7,1111122 
NERRS,ioos:station:NOAA.NERRS:marscwq:1,2017-08-09T14:00:00Z,27.8383,-97.0503,6.23,5.7,1111122 
NERRS,ioos:station:NOAA.NERRS:marscwq:1,2017-08-09T15:00:00Z,27.8383,-97.0503,6.2,5.6,1111122 
NERRS,ioos:station:NOAA.NERRS:marscwq:1,2017-08-09T16:00:00Z,27.8383,-97.0503,6.26,5.8,1111122 
NERRS,ioos:station:NOAA.NERRS:marscwq:1,2017-08-09T23:00:00Z,27.8383,-97.0503,6.17,5.6,1111122 
NERRS,ioos:station:NOAA.NERRS:marscwq:1,2017-08-10T00:00:00Z,27.8383,-97.0503,6.11,5.8,1111122 
NERRS,ioos:station:NOAA.NERRS:marscwq:1,2017-08-10T01:00:00Z,27.8383,-97.0503,6.08,5.7,1111122 
NERRS,ioos:station:NOAA.NERRS:marscwq:1,2017-08-10T02:00:00Z,27.8383,-97.0503,5.94,5.7,1111122 
NERRS,ioos:station:NOAA.NERRS:marscwq:1,2017-08-10T03:00:00Z,27.8383,-97.0503,6.0,5.7,1111122 
NERRS,ioos:station:NOAA.NERRS:marscwq:1,2017-08-10T04:00:00Z,27.8383,-97.0503,5.93,5.8,1111122 
NERRS,ioos:station:NOAA.NERRS:marscwq:1,2017-08-10T05:00:00Z,27.8383,-97.0503,5.99,5.8,1111122 
NERRS,ioos:station:NOAA.NERRS:marscwq:1,2017-08-10T06:00:00Z,27.8383,-97.0503,6.06,5.8,1111122 
NERRS,ioos:station:NOAA.NERRS:marscwq:1,2017-08-10T07:00:00Z,27.8383,-97.0503,6.04,5.8,1111122 
NERRS,ioos:station:NOAA.NERRS:marscwq:1,2017-08-10T08:00:00Z,27.8383,-97.0503,6.12,5.8,1111122 
NERRS,ioos:station:NOAA.NERRS:marscwq:1,2017-08-10T09:00:00Z,27.8383,-97.0503,6.2,5.7,1111122 
NERRS,ioos:station:NOAA.NERRS:marscwq:1,2017-08-10T10:00:00Z,27.8383,-97.0503,6.25,5.6,1111122 
NERRS,ioos:station:NOAA.NERRS:marscwq:1,2017-08-10T11:00:00Z,27.8383,-97.0503,6.26,5.5,1111122 
NERRS,ioos:station:NOAA.NERRS:marscwq:1,2017-08-10T12:00:00Z,27.8383,-97.0503,6.25,5.8,1111122 
NERRS,ioos:station:NOAA.NERRS:marscwq:1,2017-08-10T13:00:00Z,27.8383,-97.0503,6.24,5.8,1111122 
NERRS,ioos:station:NOAA.NERRS:marscwq:1,2017-08-10T14:00:00Z,27.8383,-97.0503,6.19,5.8,1111122 
NERRS,ioos:station:NOAA.NERRS:marscwq:1,2017-08-10T15:00:00Z,27.8383,-97.0503,6.23,5.8,1111122 
NERRS,ioos:station:NOAA.NERRS:marscwq:1,2017-08-10T16:00:00Z,27.8383,-97.0503,6.26,5.9,1111122 
NERRS,ioos:station:NOAA.NERRS:marscwq:1,2017-08-10T17:00:00Z,27.8383,-97.0503,6.27,5.8,1111122 
NERRS,ioos:station:NOAA.NERRS:marscwq:1,2017-08-10T18:00:00Z,27.8383,-97.0503,6.23,5.8,1111122 
NERRS,ioos:station:NOAA.NERRS:marscwq:1,2017-08-10T19:00:00Z,27.8383,-97.0503,6.25,5.7,1111122 
NERRS,ioos:station:NOAA.NERRS:marscwq:1,2017-08-10T20:00:00Z,27.8383,-97.0503,6.2,5.8,1111122 
NERRS,ioos:station:NOAA.NERRS:marscwq:1,2017-08-10T21:00:00Z,27.8383,-97.0503,6.26,6.0,1111122 
NERRS,ioos:station:NOAA.NERRS:marscwq:1,2017-08-10T22:00:00Z,27.8383,-97.0503,6.14,5.8,1111122 
NERRS,ioos:station:NOAA.NERRS:marscwq:1,2017-08-10T23:00:00Z,27.8383,-97.0503,6.16,5.7,1111122 
NERRS,ioos:station:NOAA.NERRS:marscwq:1,2017-08-11T00:00:00Z,27.8383,-97.0503,6.23,5.7,1111122 
NERRS,ioos:station:NOAA.NERRS:marscwq:1,2017-08-11T01:00:00Z,27.8383,-97.0503,6.15,5.8,1111122 
NERRS,ioos:station:NOAA.NERRS:marscwq:1,2017-08-11T02:00:00Z,27.8383,-97.0503,6.11,6.0,1111122 
NERRS,ioos:station:NOAA.NERRS:marscwq:1,2017-08-11T03:00:00Z,27.8383,-97.0503,6.03,5.8,1111122 
NERRS,ioos:station:NOAA.NERRS:marscwq:1,2017-08-11T04:00:00Z,27.8383,-97.0503,5.95,5.9,1111122 
NERRS,ioos:station:NOAA.NERRS:marscwq:1,2017-08-11T05:00:00Z,27.8383,-97.0503,6.02,5.9,1111122 
NERRS,ioos:station:NOAA.NERRS:marscwq:1,2017-08-11T06:00:00Z,27.8383,-97.0503,6.04,5.8,1111122 
NERRS,ioos:station:NOAA.NERRS:marscwq:1,2017-08-11T07:00:00Z,27.8383,-97.0503,6.09,5.9,1111122 
NERRS,ioos:station:NOAA.NERRS:marscwq:1,2017-08-11T08:00:00Z,27.8383,-97.0503,6.11,5.9,1111122 
NERRS,ioos:station:NOAA.NERRS:marscwq:1,2017-08-11T09:00:00Z,27.8383,-97.0503,6.19,5.9,1111122 
NERRS,ioos:station:NOAA.NERRS:marscwq:1,2017-08-11T10:00:00Z,27.8383,-97.0503,6.22,5.8,1111122 
NERRS,ioos:station:NOAA.NERRS:marscwq:1,2017-08-11T11:00:00Z,27.8383,-97.0503,6.19,5.7,1111122 
NERRS,ioos:station:NOAA.NERRS:marscwq:1,2017-08-11T12:00:00Z,27.8383,-97.0503,6.25,5.8,1111122 
NERRS,ioos:station:NOAA.NERRS:marscwq:1,2017-08-11T13:00:00Z,27.8383,-97.0503,6.25,5.7,1111122 
NERRS,ioos:station:NOAA.NERRS:marscwq:1,2017-08-11T14:00:00Z,27.8383,-97.0503,6.24,5.7,1111122 
NERRS,ioos:station:NOAA.NERRS:marscwq:1,2017-08-11T15:00:00Z,27.8383,-97.0503,6.17,5.6,1111122 
NERRS,ioos:station:NOAA.NERRS:marscwq:1,2017-08-11T16:00:00Z,27.8383,-97.0503,6.16,5.5,1111122 
NERRS,ioos:station:NOAA.NERRS:marscwq:1,2017-08-11T17:00:00Z,27.8383,-97.0503,6.19,5.6,1111122 
NERRS,ioos:station:NOAA.NERRS:marscwq:1,2017-08-11T18:00:00Z,27.8383,-97.0503,6.15,5.6,1111122 
NERRS,ioos:station:NOAA.NERRS:marscwq:1,2017-08-11T19:00:00Z,27.8383,-97.0503,6.13,5.6,1111122 
NERRS,ioos:station:NOAA.NERRS:marscwq:1,2017-08-11T20:00:00Z,27.8383,-97.0503,6.14,5.5,1111122 
NERRS,ioos:station:NOAA.NERRS:marscwq:1,2017-08-11T21:00:00Z,27.8383,-97.0503,6.16,5.6,1111122 
NERRS,ioos:station:NOAA.NERRS:marscwq:1,2017-08-11T22:00:00Z,27.8383,-97.0503,6.18,6.0,1111122 
NERRS,ioos:station:NOAA.NERRS:marscwq:1,2017-08-11T23:00:00Z,27.8383,-97.0503,6.17,5.7,1111122 
NERRS,ioos:station:NOAA.NERRS:marscwq:1,2017-08-12T00:00:00Z,27.8383,-97.0503,6.17,5.5,1111122 
NERRS,ioos:station:NOAA.NERRS:marscwq:1,2017-08-12T01:00:00Z,27.8383,-97.0503,6.12,5.6,1111122 
NERRS,ioos:station:NOAA.NERRS:marscwq:1,2017-08-12T02:00:00Z,27.8383,-97.0503,6.1,5.6,1111122 
NERRS,ioos:station:NOAA.NERRS:marscwq:1,2017-08-12T03:00:00Z,27.8383,-97.0503,6.11,5.7,1111122 
NERRS,ioos:station:NOAA.NERRS:marscwq:1,2017-08-12T04:00:00Z,27.8383,-97.0503,6.04,5.4,1111122 
NERRS,ioos:station:NOAA.NERRS:marscwq:1,2017-08-12T05:00:00Z,27.8383,-97.0503,6.02,5.6,1111122 
NERRS,ioos:station:NOAA.NERRS:marscwq:1,2017-08-12T06:00:00Z,27.8383,-97.0503,5.99,5.5,1111122 
NERRS,ioos:station:NOAA.NERRS:marscwq:1,2017-08-12T07:00:00Z,27.8383,-97.0503,6.03,5.5,1111122 
NERRS,ioos:station:NOAA.NERRS:marscwq:1,2017-08-12T08:00:00Z,27.8383,-97.0503,6.06,5.5,1111122 
NERRS,ioos:station:NOAA.NERRS:marscwq:1,2017-08-12T09:00:00Z,27.8383,-97.0503,6.08,5.5,1111122 
NERRS,ioos:station:NOAA.NERRS:marscwq:1,2017-08-12T10:00:00Z,27.8383,-97.0503,6.14,5.5,1111122 
NERRS,ioos:station:NOAA.NERRS:marscwq:1,2017-08-12T11:00:00Z,27.8383,-97.0503,6.16,5.5,1111122 
NERRS,ioos:station:NOAA.NERRS:marscwq:1,2017-08-12T12:00:00Z,27.8383,-97.0503,6.19,5.5,1111122 
NERRS,ioos:station:NOAA.NERRS:marscwq:1,2017-08-12T13:00:00Z,27.8383,-97.0503,6.17,5.4,1111122 
NERRS,ioos:station:NOAA.NERRS:marscwq:1,2017-08-12T14:00:00Z,27.8383,-97.0503,6.17,5.6,1111122 
NERRS,ioos:station:NOAA.NERRS:marscwq:1,2017-08-12T15:00:00Z,27.8383,-97.0503,6.15,5.7,1111122 
NERRS,ioos:station:NOAA.NERRS:marscwq:1,2017-08-12T16:00:00Z,27.8383,-97.0503,6.08,5.7,1111122 
NERRS,ioos:station:NOAA.NERRS:marscwq:1,2017-08-12T17:00:00Z,27.8383,-97.0503,6.07,5.6,1111122 
NERRS,ioos:station:NOAA.NERRS:marscwq:1,2017-08-12T18:00:00Z,27.8383,-97.0503,6.04,5.7,1111122 
NERRS,ioos:station:NOAA.NERRS:marscwq:1,2017-08-12T19:00:00Z,27.8383,-97.0503,6.02,5.4,1111122 
NERRS,ioos:station:NOAA.NERRS:marscwq:1,2017-08-12T20:00:00Z,27.8383,-97.0503,6.03,5.3,1111122 
NERRS,ioos:station:NOAA.NERRS:marscwq:1,2017-08-12T21:00:00Z,27.8383,-97.0503,6.07,5.4,1111122 
NERRS,ioos:station:NOAA.NERRS:marscwq:1,2017-08-12T22:00:00Z,27.8383,-97.0503,6.14,5.3,1111122 
NERRS,ioos:station:NOAA.NERRS:marscwq:1,2017-08-12T23:00:00Z,27.8383,-97.0503,6.15,5.5,1111122 
NERRS,ioos:station:NOAA.NERRS:marscwq:1,2017-08-13T00:00:00Z,27.8383,-97.0503,6.11,5.5,1111122 
NERRS,ioos:station:NOAA.NERRS:marscwq:1,2017-08-13T01:00:00Z,27.8383,-97.0503,6.12,5.8,1111122 
NERRS,ioos:station:NOAA.NERRS:marscwq:1,2017-08-13T02:00:00Z,27.8383,-97.0503,6.12,5.8,1111122 
NERRS,ioos:station:NOAA.NERRS:marscwq:1,2017-08-13T03:00:00Z,27.8383,-97.0503,6.1,5.9,1111122 
NERRS,ioos:station:NOAA.NERRS:marscwq:1,2017-08-13T04:00:00Z,27.8383,-97.0503,6.08,5.7,1111122 
NERRS,ioos:station:NOAA.NERRS:marscwq:1,2017-08-13T05:00:00Z,27.8383,-97.0503,6.09,5.8,1111122 
NERRS,ioos:station:NOAA.NERRS:marscwq:1,2017-08-13T06:00:00Z,27.8383,-97.0503,6.06,5.9,1111122 
NERRS,ioos:station:NOAA.NERRS:marscwq:1,2017-08-13T07:00:00Z,27.8383,-97.0503,6.05,5.8,1111122 
NERRS,ioos:station:NOAA.NERRS:marscwq:1,2017-08-13T08:00:00Z,27.8383,-97.0503,6.03,5.6,1111122 
NERRS,ioos:station:NOAA.NERRS:marscwq:1,2017-08-13T09:00:00Z,27.8383,-97.0503,6.05,5.3,1111122 
NERRS,ioos:station:NOAA.NERRS:marscwq:1,2017-08-13T10:00:00Z,27.8383,-97.0503,6.1,5.1,1111122 
NERRS,ioos:station:NOAA.NERRS:marscwq:1,2017-08-13T11:00:00Z,27.8383,-97.0503,6.12,5.1,1111122 
NERRS,ioos:station:NOAA.NERRS:marscwq:1,2017-08-13T12:00:00Z,27.8383,-97.0503,6.11,5.0,1111122 
NERRS,ioos:station:NOAA.NERRS:marscwq:1,2017-08-13T13:00:00Z,27.8383,-97.0503,6.12,5.1,1111122 
NERRS,ioos:station:NOAA.NERRS:marscwq:1,2017-08-13T14:00:00Z,27.8383,-97.0503,6.1,4.9,1111122 